Retour au catalogue

TANSEI 3 DEB

ActifUNKNOWN
NORAD 9982·DEBRIS·🇯🇵 Japan

Lancé Feb 19, 1977 depuis Uchinoura Space Center

Loading…

Prochains Passages (prochaines 24 heures)

TLE

VieillissantSource: Space-Track

Époque: Aug 18, 2026, 08:42 UTC

1 09982U 77012F   26230.36280631  .00000146  00000-0  46351-3 0  9990
2 09982  65.9040 332.5024 1719236 237.2560 105.1117 10.81081530952994

Suivez TANSEI 3 DEB en temps réel avec AllMySat

Download on the App Store